Location: Daytona Beach
(29.2106°N, 81.0231°W)
Time: 08:54:58
(UTC-04:00)

RS-44 - Visible Passes

Search period start: 24 September 2021 00:00
Search period end: 04 October 2021 00:00
Orbit: 1175 x 1510 km, 82.5° (Epoch: 23 September)

Date Brightness Start Highest point End Pass type
(mag) Time Alt. Az. Time Alt. Az. Time Alt. Az.
24 Sep ? 03:10:22 23° E 03:11:25 24° E 03:18:00 10° NE visible
24 Sep ? 05:03:01 56° WSW 05:04:07 60° W 05:12:55 10° N visible
25 Sep ? 03:34:57 40° E 03:34:57 40° E 03:42:52 10° NNE visible
25 Sep ? 05:27:37 37° W 05:28:07 37° WNW 05:36:12 10° NNW visible
26 Sep ? 03:59:28 60° ENE 03:59:28 60° ENE 04:07:11 10° NNE visible
26 Sep ? 05:52:06 23° WNW 05:52:18 23° WNW 05:58:55 10° NNW visible
27 Sep ? 02:31:15 15° ENE 02:31:15 15° ENE 02:34:32 10° NE visible
27 Sep ? 04:23:54 63° N 04:23:54 63° N 04:31:06 10° N visible
27 Sep ? 06:16:33 13° WNW 06:16:41 13° WNW 06:20:08 10° NW visible
28 Sep ? 02:55:38 24° ENE 02:55:38 24° ENE 03:00:14 10° NNE visible
28 Sep ? 04:48:16 44° NW 04:48:16 44° NW 04:54:40 10° N visible
29 Sep ? 03:19:57 33° NE 03:19:57 33° NE 03:24:54 10° NNE visible
29 Sep ? 05:12:36 28° NW 05:12:36 28° NW 05:17:49 10° NNW visible
30 Sep ? 03:44:14 38° NNE 03:44:14 38° NNE 03:49:05 10° N visible
30 Sep ? 05:36:52 17° NW 05:36:52 17° NW 05:40:17 10° NNW visible
01 Oct ? 02:15:50 13° NE 02:15:50 13° NE 02:17:05 10° NE visible
01 Oct ? 04:08:28 34° N 04:08:28 34° N 04:12:55 10° N visible
02 Oct ? 02:40:01 18° NE 02:40:01 18° NE 02:42:22 10° NNE visible
02 Oct ? 04:32:39 27° NNW 04:32:39 27° NNW 04:36:22 10° N visible
03 Oct ? 03:04:11 22° NNE 03:04:11 22° NNE 03:06:53 10° NNE visible
03 Oct ? 04:56:48 18° NNW 04:56:48 18° NNW 04:59:22 10° NNW visible
